SCP
0 0 0 0 0 0 0 0 0 0 0 0 0 0 0 0 0 0 0 0 0 0 0 0 0 0 0 0 0 0 0 0 0 0 -0 -0 -0 -0
0 0 0 0 0 0 0 0 0 0 0 0 0 0 0 0 0 0 0 0 0 0 0 0 0 0 0 0 0 0 0 0 0 0 0 0 0 0
0 0 0 0 0 0 0 0 0 0 0 0 0 0 0 0 0 0 0 0 0 0 0 0 0 0 0 0 0 0 0 0 0 0 0 0 0 0
0 0 0 0 0 0 0 0 0 0 0 0 0 0 0 0 0 0 0 0 0 0 0 0 0 0 0 0 0 0 0 0 0 0 0 0 0 0
0 0 0 0 0 0 0 0 0 0 0 0 0 0 0 0 0 0 0 0 -0 0 0 0 0 0 0 0 0 0 0 0 0 0 0 0 0 0
0 0 0 0 0 0 0 0 0 0 0 0 0 0 0 0 0 0 0 0 0 0 0 0 0 0 0 0 0 0 0 0 0 0 0 0 0 0
0 0 0 0 0 0 0 0 0 0 0 0 0 0 0 0 0 0 0 0 0 0 0 0 0 0 0 0 0 0 0 0 0 0 0 0 0 0
0 0 0 0 0 0 0 0 0 0 0 0 0 0 0 0 0 0 0 0 0 0 0 0 0 0 0 0 0 0 0 0 0 0 0 0 0 0
0 0 0 0 0 0 0 0 0 0 0 0 0 0 0 0 0 0 0 0 0 0 0 0 0 0 0 0 0 0 0 0 0 0 0 0 0 0
0 0 0 0 0 0 0 0 0 0 0 0 0 0 0 0 0 0 0 0 0 0 0 0 0 0 0 0 0 0 0 0 0 0 0 0 0 0
0 0 0 0 0 0 0 0 0 0 0 0 0 0 0 0 0 0 0 0 0 0 0 0 0 0 0 0 0 0 0 0 0 0 0 0 0 0
0 0 0 0 0 0 0 0 0 0 0 0 0 0 0 0 0 0 0 0 0 0 0 0 0 0 0 0 0 0 0 0 0 0 0 0 0 -0
0 0 0 0 0 0 0 0 0 0 0 0 0 0 0 0 0 0 0 0 0 0 0 0 0 0 0 0 0 0 0 0 0 0 0 0 0 -0
0 0 0 0 0 0 0 0 0 0 1 0 0 0 0 0 0 0 0 0 0 0 0 0 0 0 0 0 0 0 0 0 0 0 0 0 0 0
0 0 0 0 0 0 0 0 0 0 0 0 0 0 0 0 0 0 0 0 0 0 0 0 0 0 0 0 0 0 0 0 0 0 0 0 0 0
0 0 0 0 0 0 0 0 0 0 0 0 0 0 0 0 0 0 0 0 0 0 0 0 0 0 0 0 0 0 0 0 0 0 0 0 0 0
0 0 0 0 0 0 0 0 0 -0 0 0 0 0 0 0 0 0 0 0 0 0 0 0 0 0 0 0 0 0 0 0 0 0 0 0 0 0
0 0 0 0 0 0 0 0 0 0 0 0 0 0 0 0 0 0 0 0 0 0 0 0 0 0 0 0 0 0 0 0 0 0 0 0 0 0
0 0 0 0 0 0 0 0 0 0 0 0 0 0 0 0 0 0 0 0 0 0 0 0 0 0 0 0 0 0 0 0 0 0 0 0 0 0
0 0 0 0 0 0 0 0 0 0 0 0 0 0 0 0 0 0 0 0 0 0 0 0 0 0 0 0 0 0 0 0 0 0 0 0 0 0
0 0 0 0 0 0 0 0 0 0 0 0 0 0 0 0 0 0 0 0 0 0 0 0 0 0 0 0 0 0 0 0 0 0 0 0 0 0
0 0 0 0 0 0 0 0 0 0 0 0 0 0 0 0 0 0 0 0 0 0 0 0 0 0 0 0 0 0 0 0 0 0 0 0 0 0
0 0 0 0 0 0 0 0 0 0 0 0 0 0 0 0 0 0 0 0 0 0 0 0 0 0 0 0 0 0 0 0 0 0 0 0 0 0
Wind_Speed_500mb
46 48 43 29 26 25 24 25 26 22 26 23 19 29 23 22 23 19 19 24 24 30 37 42 42 44 47 47 47 49 46 40 36 28 28 11 5 11
47 41 45 30 27 24 22 22 22 20 18 19 25 24 23 21 19 14 14 18 22 29 38 44 44 45 43 44 47 46 40 33 26 18 25 17 16 27
50 42 46 40 28 25 22 21 18 16 17 17 19 25 21 16 13 10 11 18 19 33 40 43 43 38 42 47 46 40 31 20 14 16 21 19 14 13
48 51 53 50 42 34 26 27 21 22 17 22 20 21 19 12 9 9 11 14 21 30 38 39 35 37 42 47 42 32 23 13 12 15 13 18 13 18
61 59 64 57 52 35 36 30 25 25 23 19 17 19 17 10 7 9 14 17 18 31 36 42 31 32 37 43 38 24 13 12 14 15 14 11 8 1
64 64 69 58 54 49 46 43 33 31 30 24 20 20 17 13 8 9 6 11 19 20 28 33 31 36 41 38 34 11 4 9 9 8 6 8 6 3
77 71 74 69 57 53 50 51 46 45 32 27 22 22 19 16 12 12 7 11 15 22 21 15 15 18 25 32 35 12 3 3 4 5 8 10 11 10
63 77 84 75 63 71 61 56 59 55 44 34 30 29 25 23 22 13 11 9 6 29 24 13 13 14 19 25 28 18 4 9 3 1 7 11 12 12
77 80 84 85 87 90 71 63 68 64 53 43 40 32 27 32 27 26 19 14 12 16 23 11 12 14 17 23 16 19 13 9 7 5 3 8 12 14
83 89 89 78 78 94 95 82 78 76 66 62 52 37 32 35 34 30 27 27 25 18 20 7 14 13 17 18 20 11 15 15 12 9 6 6 11 13
77 80 77 76 80 84 85 76 70 74 73 67 60 51 51 44 40 33 26 16 15 17 22 11 12 17 15 22 25 15 25 16 14 10 11 9 8 8
66 69 78 75 81 86 105 94 92 79 74 69 63 58 58 58 50 41 28 22 22 18 24 16 14 19 11 14 16 32 30 18 18 13 10 11 13 11
63 68 65 65 65 74 79 107 113 88 75 65 57 57 56 61 59 52 44 35 26 21 26 23 14 18 18 24 19 19 26 31 25 24 22 19 16 14
55 49 44 39 34 46 83 98 93 83 73 59 50 46 43 57 59 56 45 41 37 32 31 35 25 21 24 28 27 24 28 27 36 36 35 36 30 23
51 46 39 40 42 40 56 95 108 85 71 75 62 69 78 65 59 52 49 44 43 42 35 36 35 29 28 32 32 31 34 33 28 27 35 40 36 33
53 51 48 44 39 33 45 71 73 97 70 70 67 84 91 62 66 64 51 41 37 32 31 31 34 33 29 26 30 34 32 28 24 29 27 37 32 39
53 50 49 51 45 38 47 64 85 80 89 92 80 86 98 70 66 62 52 44 36 26 16 26 42 42 34 30 27 27 27 24 34 30 33 37 31 33
34 39 37 49 44 43 54 68 72 80 93 98 85 82 75 69 59 50 46 38 33 35 36 39 41 36 25 24 24 23 24 25 28 28 27 30 27 27
19 23 23 25 32 30 36 41 50 60 62 61 57 53 49 43 41 32 32 40 42 44 44 37 34 29 19 19 18 29 16 25 24 26 20 26 24 28
13 16 18 18 18 19 21 22 25 24 23 24 25 27 32 34 35 36 38 40 40 39 40 37 27 30 29 19 23 17 26 20 22 21 27 22 26 31
19 14 21 26 25 24 23 22 20 19 19 20 19 22 24 25 31 37 38 34 34 33 34 31 23 29 24 26 25 19 18 24 16 22 24 19 23 28
14 14 16 21 21 19 20 18 12 13 15 15 19 21 22 28 32 31 30 29 31 32 31 19 23 32 30 33 26 19 16 26 26 21 23 23 20 16
21 9 8 15 17 17 15 15 14 12 11 13 16 17 19 22 24 25 26 26 27 25 21 25 31 29 30 26 27 28 26 28 22 24 24 24 26 29
Wind_Direction_500mb
245 244 237 239 235 233 230 227 231 230 230 229 220 220 222 249 265 280 290 306 323 334 334 336 337 342 338 333 335 338 335 334 338 348 336 324 189 180
245 245 237 233 232 227 224 225 223 228 237 220 210 227 221 245 265 276 296 316 335 343 337 337 340 344 338 340 342 341 341 342 355 15 28 48 115 154
243 235 240 228 228 223 218 218 215 208 228 214 207 232 231 236 257 291 331 344 328 340 339 337 344 343 343 345 344 342 346 352 21 47 44 49 73 120
239 240 243 239 229 220 216 217 209 210 210 212 211 220 214 214 255 311 349 329 338 335 337 338 344 349 344 350 348 347 1 27 36 48 58 74 102 145
243 246 243 235 235 220 220 227 214 212 213 202 203 204 215 232 271 309 338 340 348 335 335 337 346 344 352 357 358 355 52 60 48 55 70 80 117 140
237 236 239 238 236 231 237 227 215 214 216 210 202 212 223 239 265 236 308 319 326 323 330 332 346 352 348 5 6 12 72 72 21 2 29 44 76 82
243 242 235 234 234 240 234 232 226 222 221 215 216 217 218 226 233 237 310 311 321 313 335 329 335 348 340 351 4 11 163 182 47 25 1 2 349 339
244 236 233 232 239 243 245 237 236 231 221 221 226 231 220 235 247 252 279 302 290 304 325 328 326 341 338 344 0 12 319 289 271 93 357 336 336 341
244 240 238 241 241 237 238 239 237 236 235 240 232 234 238 250 243 269 275 284 278 264 312 316 300 341 320 331 348 3 351 329 318 325 355 354 2 17
245 247 251 247 237 235 233 242 234 233 231 237 240 240 248 250 256 262 272 286 294 291 293 323 297 325 311 307 314 314 340 333 317 294 296 335 5 15
244 244 249 247 242 235 232 232 232 235 235 238 241 248 255 259 263 269 272 265 270 259 285 285 297 313 312 295 298 275 319 303 305 304 290 282 298 330
246 246 247 246 244 240 240 225 227 239 237 235 237 242 250 255 258 258 256 252 256 267 249 273 298 310 318 277 278 304 308 297 292 294 302 300 288 277
247 246 251 251 254 247 249 234 223 229 227 232 237 242 248 254 258 259 257 255 253 252 262 279 286 289 283 284 278 280 285 282 274 277 278 282 287 277
239 239 248 242 250 262 253 225 216 218 218 216 225 238 255 256 256 259 257 258 249 234 246 273 283 288 286 287 284 277 286 286 285 278 275 269 262 264
237 243 243 253 255 273 243 224 210 210 216 229 240 253 252 266 253 246 249 254 257 262 262 267 282 282 279 285 275 278 280 272 280 274 272 272 259 251
233 242 255 259 252 265 241 221 210 212 218 225 238 240 239 232 235 241 249 251 249 259 271 282 292 290 284 275 272 278 278 264 264 264 266 273 263 236
236 238 243 243 239 233 223 230 226 216 219 234 235 236 239 233 237 234 229 235 242 239 233 272 288 299 287 264 268 278 285 275 262 268 263 274 253 235
242 245 243 230 225 225 229 226 224 224 230 235 235 236 239 230 227 228 234 240 243 254 264 271 280 288 280 275 283 281 287 272 271 275 260 269 240 230
233 227 211 212 221 218 228 229 227 233 234 234 235 226 225 228 229 232 244 245 243 250 264 272 276 278 251 262 266 288 272 274 273 293 260 257 247 236
187 185 186 188 187 182 188 195 201 199 212 217 220 223 230 238 239 235 234 239 248 263 269 271 250 242 238 241 255 264 302 284 258 262 277 261 244 239
119 123 136 135 140 140 139 141 149 162 179 192 203 217 229 235 239 238 245 256 263 260 260 264 250 232 229 247 260 288 292 316 293 262 271 264 249 245
133 135 141 135 136 141 150 154 165 182 201 209 216 222 233 239 241 246 246 245 253 255 260 248 225 240 247 253 257 269 277 290 300 301 275 265 256 240
134 139 156 134 139 142 148 157 166 177 190 213 226 236 238 243 241 240 241 249 252 251 236 213 226 249 264 272 270 265 267 268 272 284 290 290 261 254
Wind_Speed_850mb
46 48 43 29 26 25 24 25 26 22 26 23 19 29 23 22 23 19 19 24 24 30 37 42 42 44 47 47 47 49 46 40 36 28 28 11 5 11
47 41 45 30 27 24 22 22 22 20 18 19 25 24 23 21 19 14 14 18 22 29 38 44 44 45 43 44 47 46 40 33 26 18 25 17 16 27
50 42 46 40 28 25 22 21 18 16 17 17 19 25 21 16 13 10 11 18 19 33 40 43 43 38 42 47 46 40 31 20 14 16 21 19 14 13
48 51 53 50 42 34 26 27 21 22 17 22 20 21 19 12 9 9 11 14 21 30 38 39 35 37 42 47 42 32 23 13 12 15 13 18 13 18
61 59 64 57 52 35 36 30 25 25 23 19 17 19 17 10 7 9 14 17 18 31 36 42 31 32 37 43 38 24 13 12 14 15 14 11 8 1
64 64 69 58 54 49 46 43 33 31 30 24 20 20 17 13 8 9 6 11 19 20 28 33 31 36 41 38 34 11 4 9 9 8 6 8 6 3
77 71 74 69 57 53 50 51 46 45 32 27 22 22 19 16 12 12 7 11 15 22 21 15 15 18 25 32 35 12 3 3 4 5 8 10 11 10
63 77 84 75 63 71 61 56 59 55 44 34 30 29 25 23 22 13 11 9 6 29 24 13 13 14 19 25 28 18 4 9 3 1 7 11 12 12
77 80 84 85 87 90 71 63 68 64 53 43 40 32 27 32 27 26 19 14 12 16 23 11 12 14 17 23 16 19 13 9 7 5 3 8 12 14
83 89 89 78 78 94 95 82 78 76 66 62 52 37 32 35 34 30 27 27 25 18 20 7 14 13 17 18 20 11 15 15 12 9 6 6 11 13
77 80 77 76 80 84 85 76 70 74 73 67 60 51 51 44 40 33 26 16 15 17 22 11 12 17 15 22 25 15 25 16 14 10 11 9 8 8
66 69 78 75 81 86 105 94 92 79 74 69 63 58 58 58 50 41 28 22 22 18 24 16 14 19 11 14 16 32 30 18 18 13 10 11 13 11
63 68 65 65 65 74 79 107 113 88 75 65 57 57 56 61 59 52 44 35 26 21 26 23 14 18 18 24 19 19 26 31 25 24 22 19 16 14
55 49 44 39 34 46 83 98 93 83 73 59 50 46 43 57 59 56 45 41 37 32 31 35 25 21 24 28 27 24 28 27 36 36 35 36 30 23
51 46 39 40 42 40 56 95 108 85 71 75 62 69 78 65 59 52 49 44 43 42 35 36 35 29 28 32 32 31 34 33 28 27 35 40 36 33
53 51 48 44 39 33 45 71 73 97 70 70 67 84 91 62 66 64 51 41 37 32 31 31 34 33 29 26 30 34 32 28 24 29 27 37 32 39
53 50 49 51 45 38 47 64 85 80 89 92 80 86 98 70 66 62 52 44 36 26 16 26 42 42 34 30 27 27 27 24 34 30 33 37 31 33
34 39 37 49 44 43 54 68 72 80 93 98 85 82 75 69 59 50 46 38 33 35 36 39 41 36 25 24 24 23 24 25 28 28 27 30 27 27
19 23 23 25 32 30 36 41 50 60 62 61 57 53 49 43 41 32 32 40 42 44 44 37 34 29 19 19 18 29 16 25 24 26 20 26 24 28
13 16 18 18 18 19 21 22 25 24 23 24 25 27 32 34 35 36 38 40 40 39 40 37 27 30 29 19 23 17 26 20 22 21 27 22 26 31
19 14 21 26 25 24 23 22 20 19 19 20 19 22 24 25 31 37 38 34 34 33 34 31 23 29 24 26 25 19 18 24 16 22 24 19 23 28
14 14 16 21 21 19 20 18 12 13 15 15 19 21 22 28 32 31 30 29 31 32 31 19 23 32 30 33 26 19 16 26 26 21 23 23 20 16
21 9 8 15 17 17 15 15 14 12 11 13 16 17 19 22 24 25 26 26 27 25 21 25 31 29 30 26 27 28 26 28 22 24 24 24 26 29
Wind_Direction_850mb
245 244 237 239 235 233 230 227 231 230 230 229 220 220 222 249 265 280 290 306 323 334 334 336 337 342 338 333 335 338 335 334 338 348 336 324 189 180
245 245 237 233 232 227 224 225 223 228 237 220 210 227 221 245 265 276 296 316 335 343 337 337 340 344 338 340 342 341 341 342 355 15 28 48 115 154
243 235 240 228 228 223 218 218 215 208 228 214 207 232 231 236 257 291 331 344 328 340 339 337 344 343 343 345 344 342 346 352 21 47 44 49 73 120
239 240 243 239 229 220 216 217 209 210 210 212 211 220 214 214 255 311 349 329 338 335 337 338 344 349 344 350 348 347 1 27 36 48 58 74 102 145
243 246 243 235 235 220 220 227 214 212 213 202 203 204 215 232 271 309 338 340 348 335 335 337 346 344 352 357 358 355 52 60 48 55 70 80 117 140
237 236 239 238 236 231 237 227 215 214 216 210 202 212 223 239 265 236 308 319 326 323 330 332 346 352 348 5 6 12 72 72 21 2 29 44 76 82
243 242 235 234 234 240 234 232 226 222 221 215 216 217 218 226 233 237 310 311 321 313 335 329 335 348 340 351 4 11 163 182 47 25 1 2 349 339
244 236 233 232 239 243 245 237 236 231 221 221 226 231 220 235 247 252 279 302 290 304 325 328 326 341 338 344 0 12 319 289 271 93 357 336 336 341
244 240 238 241 241 237 238 239 237 236 235 240 232 234 238 250 243 269 275 284 278 264 312 316 300 341 320 331 348 3 351 329 318 325 355 354 2 17
245 247 251 247 237 235 233 242 234 233 231 237 240 240 248 250 256 262 272 286 294 291 293 323 297 325 311 307 314 314 340 333 317 294 296 335 5 15
244 244 249 247 242 235 232 232 232 235 235 238 241 248 255 259 263 269 272 265 270 259 285 285 297 313 312 295 298 275 319 303 305 304 290 282 298 330
246 246 247 246 244 240 240 225 227 239 237 235 237 242 250 255 258 258 256 252 256 267 249 273 298 310 318 277 278 304 308 297 292 294 302 300 288 277
247 246 251 251 254 247 249 234 223 229 227 232 237 242 248 254 258 259 257 255 253 252 262 279 286 289 283 284 278 280 285 282 274 277 278 282 287 277
239 239 248 242 250 262 253 225 216 218 218 216 225 238 255 256 256 259 257 258 249 234 246 273 283 288 286 287 284 277 286 286 285 278 275 269 262 264
237 243 243 253 255 273 243 224 210 210 216 229 240 253 252 266 253 246 249 254 257 262 262 267 282 282 279 285 275 278 280 272 280 274 272 272 259 251
233 242 255 259 252 265 241 221 210 212 218 225 238 240 239 232 235 241 249 251 249 259 271 282 292 290 284 275 272 278 278 264 264 264 266 273 263 236
236 238 243 243 239 233 223 230 226 216 219 234 235 236 239 233 237 234 229 235 242 239 233 272 288 299 287 264 268 278 285 275 262 268 263 274 253 235
242 245 243 230 225 225 229 226 224 224 230 235 235 236 239 230 227 228 234 240 243 254 264 271 280 288 280 275 283 281 287 272 271 275 260 269 240 230
233 227 211 212 221 218 228 229 227 233 234 234 235 226 225 228 229 232 244 245 243 250 264 272 276 278 251 262 266 288 272 274 273 293 260 257 247 236
187 185 186 188 187 182 188 195 201 199 212 217 220 223 230 238 239 235 234 239 248 263 269 271 250 242 238 241 255 264 302 284 258 262 277 261 244 239
119 123 136 135 140 140 139 141 149 162 179 192 203 217 229 235 239 238 245 256 263 260 260 264 250 232 229 247 260 288 292 316 293 262 271 264 249 245
133 135 141 135 136 141 150 154 165 182 201 209 216 222 233 239 241 246 246 245 253 255 260 248 225 240 247 253 257 269 277 290 300 301 275 265 256 240
134 139 156 134 139 142 148 157 166 177 190 213 226 236 238 243 241 240 241 249 252 251 236 213 226 249 264 272 270 265 267 268 272 284 290 290 261 254